Location: Arcadia
(34.1397°N, 118.0353°W)
Time: 21:05:38
(UTC+00:00)

CZ-2C R/B - Pass Details

Date: 08 September 2024
Orbit: 664 x 778 km, 98.4° (Epoch: 10 October)

Event Time Altitude Azimuth Distance (km) Brightness Sun altitude
Rises 12:41:31 0° 351° (N) 3,164 5.8 -10.9°
Reaches altitude 10° 12:44:42 10° 330° (NNW) 2,212 4.7 -10.2°
Maximum altitude 12:47:27 15° 295° (WNW) 1,853 4.0 -9.7°
Enters shadow 12:49:39 11° 265° (W) 2,066 4.1 -9.2°
